Date String (YYYY-MM-DD hh:mm:ss) UTC,Instrument flags,Ambient pressure (hPa),Sample flow (lpm),Bypass flow (lpm),Sample temperature (°C),Ambient temperature (°C),ASC tube jacket temperature (°C),LED temperature (°C),Box temperature (°C),Sample RH (%),Span deviation,Mass concentration (μg/m³),Mass concentration (μg/m³),Mass concentration (μg/m³)
DateTimeUTC,F1_M11,P_M11,Q1_M11,Q2_M11,T1_M11,T2_M11,T3_M11,T4_M11,T5_M11,U1_M11,ZSPAN_M11,X2_M11,X0_M11,X1_M11
2023-05-29 22:00:00,,0827.2,5.00,0.00,29.2,27.7,00.0,37.5,31.0,25.0,0000.0,0004.90,0013.37,0003.99
2023-05-29 22:01:00,,0827.2,4.99,0.00,29.2,27.9,00.0,37.5,31.0,25.6,0000.0,0004.88,0013.37,0004.00
2023-05-29 22:02:00,,0827.1,5.01,0.00,29.3,28.0,00.0,37.5,31.1,24.7,0000.0,0004.85,0012.85,0004.00
2023-05-29 22:03:00,,0827.2,5.01,0.00,29.3,28.2,00.0,37.5,31.1,23.2,0000.0,0004.84,0012.79,0004.01
2023-05-29 22:04:00,,0827.1,5.00,0.00,29.3,28.0,00.0,37.5,31.1,22.2,0000.0,0004.85,0011.98,0004.02
2023-05-29 22:05:00,,0827.1,4.98,0.00,29.3,26.4,00.0,37.5,30.9,23.0,0000.0,0004.86,0011.11,0004.03
2023-05-29 22:06:00,,0827.1,5.01,0.00,29.2,25.1,00.0,37.4,30.7,23.0,0000.0,0004.84,0010.74,0004.02
2023-05-29 22:07:00,,0827.1,5.02,0.00,29.2,25.2,00.0,37.3,30.6,22.0,0000.0,0004.83,0010.95,0004.01
2023-05-29 22:08:00,,0827.2,5.00,0.00,29.1,25.5,00.0,37.4,30.6,22.6,0000.0,0004.87,0011.53,0004.01
2023-05-29 22:09:00,,0827.1,5.00,0.00,29.1,25.8,00.0,37.4,30.6,21.0,0000.0,0004.89,0011.68,0003.99
2023-05-29 22:10:00,,0827.2,4.99,0.00,29.1,26.2,00.0,37.4,30.7,21.0,0000.0,0004.89,0011.73,0003.99
2023-05-29 22:11:00,,0827.2,5.00,0.00,29.1,26.6,00.0,37.4,30.7,21.2,0000.0,0004.86,0011.58,0003.98
2023-05-29 22:12:00,,0827.2,5.00,0.00,29.1,26.9,00.0,37.4,30.8,22.7,0000.0,0004.84,0011.66,0003.98
2023-05-29 22:13:00,,0827.2,4.99,0.00,29.1,27.2,00.0,37.4,30.9,21.9,0000.0,0004.84,0011.42,0003.98
2023-05-29 22:14:00,,0827.2,4.98,0.00,29.1,27.4,00.0,37.4,30.9,23.0,0000.0,0004.85,0011.69,0003.96
2023-05-29 22:15:00,,0827.2,5.01,0.00,29.2,27.6,00.0,37.5,31.0,21.3,0000.0,0004.85,0011.49,0003.94
2023-05-29 22:16:00,,0827.1,5.00,0.00,29.2,27.8,00.0,37.5,31.0,21.0,0000.0,0004.84,0012.02,0003.92
2023-05-29 22:17:00,,0827.2,5.00,0.00,29.3,28.0,00.0,37.5,31.1,21.5,0000.0,0004.83,0012.06,0003.92
2023-05-29 22:18:00,,0827.2,5.00,0.00,29.3,28.1,00.0,37.5,31.1,22.9,0000.0,0004.81,0011.51,0003.90
2023-05-29 22:19:00,,0827.1,5.01,0.00,29.3,28.2,00.0,37.5,31.2,22.6,0000.0,0004.78,0010.86,0003.90
2023-05-29 22:20:00,,0827.1,4.99,0.00,29.4,27.2,00.0,37.5,31.0,23.0,0000.0,0004.75,0010.68,0003.89
2023-05-29 22:21:00,,0827.1,5.00,0.00,29.3,25.5,00.0,37.4,30.8,23.6,0000.0,0004.72,0010.58,0003.88
2023-05-29 22:22:00,,0827.1,5.01,0.00,29.2,25.1,00.0,37.3,30.7,22.6,0000.0,0004.73,0011.27,0003.86
2023-05-29 22:23:00,,0827.1,5.01,0.00,29.2,25.3,00.0,37.3,30.6,23.2,0000.0,0004.79,0011.25,0003.85
2023-05-29 22:24:00,,0827.1,5.00,0.00,29.1,25.7,00.0,37.4,30.6,22.6,0000.0,0004.80,0011.65,0003.84
2023-05-29 22:25:00,,0827.1,5.00,0.00,29.1,26.1,00.0,37.4,30.6,21.6,0000.0,0004.77,0012.82,0003.83
2023-05-29 22:26:00,,0827.1,4.99,0.00,29.1,26.5,00.0,37.4,30.7,21.8,0000.0,0004.78,0012.87,0003.83
2023-05-29 22:27:00,,0827.1,5.00,0.00,29.1,26.8,00.0,37.4,30.8,21.2,0000.0,0004.74,0012.80,0003.83
2023-05-29 22:28:00,,0827.1,5.00,0.00,29.1,27.1,00.0,37.4,30.8,20.0,0000.0,0004.73,0013.35,0003.82
2023-05-29 22:29:00,,0827.1,5.01,0.00,29.1,27.4,00.0,37.4,30.9,19.8,0000.0,0004.77,0014.70,0003.82
2023-05-29 22:30:00,,0827.1,5.01,0.00,29.2,27.6,00.0,37.5,31.0,19.5,0000.0,0004.75,0014.94,0003.81
2023-05-29 22:31:00,,0827.0,4.99,0.00,29.2,27.8,00.0,37.5,31.0,19.4,0000.0,0004.74,0014.88,0003.80
2023-05-29 22:32:00,,0827.1,5.00,0.00,29.3,27.9,00.0,37.5,31.1,18.4,0000.0,0004.78,0015.53,0003.79
2023-05-29 22:33:00,,0827.1,5.00,0.00,29.3,28.1,00.0,37.5,31.1,19.4,0000.0,0004.77,0015.05,0003.79
2023-05-29 22:34:00,,0827.1,5.00,0.00,29.3,28.2,00.0,37.5,31.2,18.5,0000.0,0004.72,0014.91,0003.77
2023-05-29 22:35:00,,0827.0,4.99,0.00,29.4,27.0,00.0,37.5,31.0,18.3,0000.0,0004.71,0014.16,0003.76
2023-05-29 22:36:00,,0827.0,5.01,0.00,29.3,25.3,00.0,37.4,30.8,18.6,0000.0,0004.68,0013.19,0003.77
2023-05-29 22:37:00,,0827.0,5.01,0.00,29.2,25.0,00.0,37.3,30.7,19.4,0000.0,0004.71,0013.12,0003.77
2023-05-29 22:38:00,,0827.0,5.01,0.00,29.2,25.3,00.0,37.3,30.6,20.2,0000.0,0004.71,0013.52,0003.76
2023-05-29 22:39:00,,0827.0,5.00,0.00,29.1,25.6,00.0,37.4,30.6,19.8,0000.0,0004.72,0013.10,0003.75
2023-05-29 22:40:00,,0827.0,5.00,0.00,29.1,26.1,00.0,37.4,30.6,19.7,0000.0,0004.71,0011.75,0003.75
2023-05-29 22:41:00,,0826.9,5.00,0.00,29.1,26.5,00.0,37.4,30.7,17.1,0000.0,0004.73,0012.36,0003.76
2023-05-29 22:42:00,,0826.9,5.00,0.00,29.1,26.8,00.0,37.4,30.8,17.6,0000.0,0004.75,0012.82,0003.76
2023-05-29 22:43:00,,0827.0,5.00,0.00,29.1,27.1,00.0,37.4,30.8,17.7,0000.0,0004.73,0012.67,0003.76
2023-05-29 22:44:00,,0826.9,4.99,0.00,29.1,27.4,00.0,37.4,30.9,17.7,0000.0,0004.70,0012.73,0003.75
2023-05-29 22:45:00,,0827.0,5.01,0.00,29.2,27.6,00.0,37.4,31.0,17.8,0000.0,0004.73,0013.10,0003.76
2023-05-29 22:46:00,,0826.9,5.00,0.00,29.2,27.8,00.0,37.5,31.0,17.9,0000.0,0004.70,0013.29,0003.75
2023-05-29 22:47:00,,0827.0,5.01,0.00,29.3,28.0,00.0,37.5,31.1,17.4,0000.0,0004.74,0013.01,0003.76
2023-05-29 22:48:00,,0827.0,5.00,0.00,29.3,28.1,00.0,37.5,31.1,17.2,0000.0,0004.72,0012.74,0003.77
2023-05-29 22:49:00,,0826.9,5.00,0.00,29.3,28.2,00.0,37.5,31.2,18.1,0000.0,0004.69,0011.90,0003.76
2023-05-29 22:50:00,,0826.9,4.98,0.00,29.4,27.9,00.0,37.5,31.2,18.1,0000.0,0004.66,0011.40,0003.77
2023-05-29 22:51:00,,0826.9,5.00,0.00,29.3,26.1,00.0,37.5,30.9,17.7,0000.0,0004.67,0011.56,0003.77
2023-05-29 22:52:00,,0826.9,5.00,0.00,29.3,25.0,00.0,37.4,30.7,17.5,0000.0,0004.69,0011.18,0003.76
2023-05-29 22:53:00,,0826.9,5.02,0.00,29.2,25.2,00.0,37.3,30.6,18.3,0000.0,0004.69,0010.77,0003.77
2023-05-29 22:54:00,,0826.8,5.00,0.00,29.1,25.5,00.0,37.4,30.6,18.5,0000.0,0004.67,0010.34,0003.76
2023-05-29 22:55:00,,0826.8,5.00,0.00,29.1,25.9,00.0,37.4,30.6,18.9,0000.0,0004.69,0010.55,0003.77
2023-05-29 22:56:00,,0826.8,5.00,0.00,29.1,26.3,00.0,37.4,30.7,17.9,0000.0,0004.69,0010.06,0003.76
2023-05-29 22:57:00,,0826.8,5.00,0.00,29.1,26.7,00.0,37.4,30.8,18.6,0000.0,0004.69,0009.79,0003.77
2023-05-29 22:58:00,,0826.8,4.99,0.00,29.1,27.0,00.0,37.4,30.8,18.8,0000.0,0004.70,0009.83,0003.76
2023-05-29 22:59:00,,0826.8,5.01,0.00,29.1,27.3,00.0,37.4,30.9,18.0,0000.0,0004.70,0010.09,0003.74
